User: anonymous   Login
Location: Goettingen
(51.5300°N, 9.9433°E)
Time: 08:08:30
(UTC+02:00)
Language:

FLOCK 4Q 25 - Orbit

View from above orbital plane
View from above orbital plane
View from above satellite
View from above satellite

Ground track
Ground track

The orbit data is extracted from the following two-line orbital elements,

1 58303U 23174AZ  24197.20585074  .00013543  00000-0  62022-3 0  9991
2 58303  97.4515 271.4857 0011575 122.1343 238.1017 15.20551441 37977
Epoch (UTC): 15 July 2024 04:56:25
Eccentricity: 0.0011575
inclination: 97.4515°
perigee height: 496 km
apogee height: 512 km
right ascension of ascending node: 271.4857°
argument of perigee: 122.1343°
revolutions per day: 15.20551441
mean anomaly at epoch: 238.1017°
orbit number at epoch: 3797

The dashed part of the orbit path shows where the satellite is in the earth's shadow,  

DLR